Probability
7 7 7 11 13 15 18 17 10 4 5 21 42 42 26 12 3 0 0 0 0 0 0 0 0 0 0 0 0 0 0 0 0 0 0 0 0 0
7 6 6 10 13 14 17 18 14 9 9 24 41 38 22 8 1 0 0 0 0 0 0 0 0 0 0 0 0 0 0 0 0 0 0 0 0 0
6 6 6 7 10 12 13 14 16 16 16 23 35 36 22 8 2 0 0 0 0 0 0 0 0 0 0 0 0 0 0 0 0 0 0 0 0 0
3 4 6 6 7 9 9 9 13 19 20 21 28 33 25 13 5 1 0 0 0 0 0 0 0 0 0 0 0 0 0 0 0 0 0 0 0 0
1 2 4 4 6 9 9 9 11 16 19 20 26 32 29 18 8 2 0 0 0 0 0 0 0 0 0 0 0 0 0 0 0 0 0 0 0 0
0 1 1 3 5 7 7 8 9 11 13 18 25 35 35 22 8 1 0 0 0 0 0 0 0 0 0 0 0 0 0 0 0 0 0 0 0 0
1 1 1 2 3 3 3 4 6 7 9 13 20 32 35 23 9 1 0 0 0 0 0 0 0 0 0 0 0 0 0 0 0 0 0 0 0 0
1 1 1 2 2 1 0 1 2 3 6 9 14 20 24 20 9 2 0 0 0 0 0 0 0 0 0 0 0 0 0 0 0 0 0 0 0 0
1 0 0 1 1 1 0 0 0 1 3 6 8 10 12 12 8 3 0 0 0 0 0 0 0 0 0 0 0 0 0 0 0 0 0 0 0 0
1 0 0 0 0 0 0 0 0 0 0 1 3 4 5 4 4 4 1 0 0 0 0 0 0 0 0 0 0 0 0 0 0 0 0 0 0 0
0 0 0 0 0 0 0 0 0 0 0 0 0 1 1 1 2 3 2 0 0 0 0 0 0 0 0 0 0 0 0 0 0 0 0 0 0 0
0 0 0 0 0 0 0 0 0 0 0 0 0 0 0 0 1 1 1 0 0 0 0 0 0 0 0 0 0 0 0 0 0 0 0 0 0 0
0 0 0 0 0 0 0 0 0 0 0 0 0 0 0 0 0 0 0 0 0 0 0 0 0 0 0 0 0 0 0 0 0 0 0 0 0 0
0 0 0 0 0 0 0 0 0 0 0 0 0 0 0 0 1 1 1 0 0 0 0 0 0 0 0 0 0 0 0 0 0 0 0 0 0 0
0 0 0 0 0 0 0 0 0 0 0 0 0 0 0 1 2 2 1 0 0 0 0 0 0 0 0 0 0 0 0 0 0 0 0 0 0 0
0 0 0 0 0 0 0 0 0 0 0 0 0 0 0 1 1 1 1 0 0 0 0 0 0 0 0 0 0 0 0 0 0 0 0 0 0 0
0 0 0 0 0 0 0 0 0 0 0 0 0 0 1 0 0 0 0 0 0 0 0 0 0 0 0 0 0 0 0 0 0 0 0 0 0 0
0 0 0 0 0 0 0 0 0 0 0 0 0 0 0 0 0 0 0 0 0 0 0 0 0 0 0 0 0 0 0 0 0 0 0 0 0 0
0 0 0 0 0 0 0 0 0 0 0 0 0 0 0 0 0 0 0 0 0 0 0 0 0 0 0 0 0 0 0 0 0 0 0 0 0 0
0 0 0 0 0 0 0 0 0 0 0 0 0 0 0 0 0 0 0 0 0 0 0 0 0 0 0 0 0 0 0 0 0 0 0 0 0 0
0 0 0 0 0 0 0 0 0 0 0 0 0 0 0 0 0 0 0 0 0 0 0 0 0 0 0 0 0 0 0 0 0 0 0 0 0 0
0 0 0 0 0 0 0 0 0 0 0 0 0 0 0 0 0 0 0 0 0 0 0 0 0 0 0 0 0 0 0 0 0 0 0 0 0 0
0 0 0 0 0 0 0 0 0 0 0 0 0 0 0 0 0 0 0 0 0 0 0 0 0 0 0 0 0 0 0 0 0 0 0 0 0 0
Wind_Speed
3 3 3 4 4 4 4 2 2 3 3 4 3 5 4 5 5 4 5 5 6 7 9 10 10 10 11 11 12 12 12 12 12 12 12 13 13 13
3 3 3 2 3 3 4 3 2 2 2 3 3 7 6 7 5 6 7 7 4 4 6 7 9 9 9 10 10 10 10 10 10 9 8 8 8 8
6 5 5 4 3 3 3 3 3 2 2 2 4 7 8 8 7 6 6 5 5 6 5 6 6 7 7 7 8 8 8 8 8 8 7 7 6 5
7 7 7 5 5 3 3 3 3 3 2 3 5 6 7 9 8 6 6 7 5 7 8 9 8 8 8 8 8 8 8 8 7 7 7 6 6 5
8 8 8 8 7 5 4 3 3 3 2 2 4 5 6 8 8 7 8 6 6 7 9 10 11 11 11 11 10 10 10 9 9 9 8 8 8 8
9 8 8 9 8 8 6 5 4 3 2 3 3 5 6 8 8 8 6 5 5 5 7 8 12 13 13 12 12 12 12 12 12 13 13 13 13 13
10 9 9 10 11 9 8 7 6 4 3 3 4 4 6 8 8 7 7 6 4 4 5 5 6 6 7 10 13 14 14 14 15 15 15 15 15 15
9 9 10 10 12 13 13 12 11 9 7 5 4 5 6 8 7 9 9 7 4 3 5 5 5 6 6 6 11 15 15 16 16 16 16 16 15 15
9 9 12 12 13 11 12 13 12 12 11 7 6 6 5 6 8 10 10 9 5 6 5 5 6 7 6 7 12 14 15 16 17 17 16 16 15 15
10 9 10 9 9 10 11 11 10 10 10 8 6 5 4 2 5 7 9 8 8 5 5 5 5 6 7 6 10 13 14 15 16 16 16 16 15 15
10 10 11 10 11 11 10 10 9 8 10 11 9 7 5 3 3 5 9 11 9 5 3 5 7 7 6 5 7 11 12 12 14 15 16 17 16 14
7 9 12 11 11 12 9 9 9 8 8 10 9 8 7 6 7 7 9 11 10 6 4 6 8 6 5 4 4 5 6 8 10 12 14 14 11 7
6 6 6 10 12 13 10 7 8 7 7 8 8 7 6 6 6 7 7 9 10 6 9 7 8 5 6 6 4 5 5 5 5 5 7 7 4 4
4 3 3 9 12 12 9 6 8 7 5 6 6 6 6 7 6 8 7 6 6 7 11 9 8 7 9 8 6 7 6 5 5 5 4 5 4 7
0 1 2 7 9 8 9 9 8 5 5 5 6 6 6 6 7 6 6 6 7 9 9 6 7 8 8 7 9 9 7 5 5 5 5 4 4 6
3 3 5 5 5 5 7 7 6 5 5 5 5 6 6 6 7 7 7 8 7 5 5 5 8 10 7 8 10 10 7 7 7 6 5 4 5 5
3 4 4 5 5 5 5 6 6 6 5 4 4 5 6 7 7 8 8 8 7 8 6 4 5 5 6 9 10 9 8 6 6 6 5 5 5 5
2 4 5 5 6 7 7 7 7 7 6 6 5 5 6 7 8 8 9 9 9 9 8 8 8 6 4 2 7 10 8 7 7 7 6 6 6 6
3 4 5 5 6 6 6 6 7 7 6 5 5 5 6 8 9 10 10 9 9 9 9 10 11 10 10 9 8 10 9 7 8 7 6 5 6 7
6 6 5 5 5 5 6 6 6 6 6 5 5 5 6 8 10 10 10 12 11 10 9 9 10 10 9 8 7 7 11 9 8 8 7 5 3 6
6 6 5 5 4 5 5 5 5 5 6 6 6 6 7 8 10 11 11 15 13 13 13 12 10 12 6 6 7 6 5 8 10 8 8 6 4 4
5 5 5 5 5 5 5 4 4 4 5 5 6 6 7 8 10 12 12 13 12 12 12 10 10 9 7 8 8 8 6 4 6 10 9 5 5 7
5 4 4 4 4 4 4 5 6 5 5 5 6 7 8 8 9 10 12 12 12 12 12 11 11 9 7 8 8 8 9 8 5 5 4 6 9 7
Wind_Direction
263 262 260 271 293 310 316 303 232 211 202 163 135 136 125 111 138 143 125 146 172 190 196 200 204 207 209 210 210 210 211 211 213 216 220 223 226 228
226 239 250 261 285 294 305 308 291 246 217 178 156 150 143 136 137 111 105 113 102 152 177 188 194 199 202 203 200 200 200 200 201 203 207 211 216 218
213 215 222 219 243 269 286 299 296 283 235 187 142 143 136 131 131 128 139 120 88 84 112 134 152 164 176 179 177 177 176 176 176 177 180 183 183 188
220 212 211 208 209 225 246 265 279 288 266 200 151 152 149 139 138 136 124 105 95 83 89 97 107 115 124 133 137 141 143 147 151 154 158 158 158 159
231 219 210 202 202 199 207 224 245 267 275 227 188 162 148 144 134 120 109 109 106 103 90 86 91 96 101 107 112 117 120 122 122 120 121 122 119 114
242 228 216 206 203 196 199 204 208 220 242 243 216 172 155 149 138 134 128 125 118 105 88 89 90 88 92 98 103 106 108 110 109 106 104 102 99 98
248 237 227 216 209 197 195 192 192 194 203 220 218 190 167 162 159 152 141 127 111 130 124 117 104 91 85 90 98 105 105 105 104 103 101 99 97 95
254 246 241 226 216 200 195 190 188 192 195 201 208 206 194 177 162 154 146 147 143 158 136 121 109 94 81 78 101 107 108 108 107 106 104 101 99 97
249 242 243 232 208 197 195 193 194 196 193 187 203 209 200 187 168 161 162 161 144 154 131 109 97 86 78 84 102 108 111 113 113 111 108 105 101 98
241 234 234 244 223 197 189 194 198 198 197 195 200 207 203 207 180 167 158 134 120 131 127 112 107 97 90 86 97 109 113 117 117 116 113 107 101 97
236 232 227 227 227 203 191 192 196 197 199 200 199 198 198 211 209 157 153 146 141 139 124 115 122 110 96 93 98 107 113 119 123 124 122 119 115 104
234 234 228 220 211 194 192 192 198 197 186 190 200 205 204 211 205 181 167 157 146 144 156 128 144 133 114 107 119 124 112 113 125 132 137 141 138 120
227 222 220 202 197 194 193 192 196 191 184 183 190 198 199 198 189 185 184 168 158 149 159 143 154 145 128 136 144 146 139 145 140 142 160 177 180 151
227 217 211 194 197 193 191 188 180 181 184 183 186 193 193 193 187 186 185 170 152 144 158 153 152 157 141 140 144 153 155 162 161 168 183 202 216 164
23 59 211 190 189 195 200 179 174 194 194 188 192 196 190 185 175 168 149 132 117 132 149 148 142 145 149 145 146 154 158 172 178 177 175 177 165 146
199 172 175 184 200 205 182 185 200 209 202 203 193 186 177 176 170 153 142 132 119 112 109 122 141 147 146 140 147 156 160 167 179 177 172 174 172 166
195 186 185 181 201 208 198 191 202 211 214 212 198 183 176 173 164 151 146 142 138 147 140 124 120 126 140 148 155 163 166 166 172 174 169 175 183 178
213 209 211 210 209 206 203 200 201 208 208 203 195 183 176 171 160 153 155 153 149 151 152 150 144 135 136 165 175 166 170 171 168 171 177 177 185 188
237 231 220 218 219 217 211 207 205 205 203 199 187 183 175 167 163 161 161 156 154 156 160 161 163 165 172 176 189 188 172 168 165 171 188 190 183 183
236 240 230 225 219 220 220 216 208 199 192 188 184 181 175 168 167 167 166 162 158 156 162 173 177 180 181 170 160 177 184 165 162 171 187 199 176 171
228 230 229 225 224 220 218 214 207 191 185 181 182 179 177 173 171 170 167 164 161 163 171 180 187 184 173 146 149 156 164 170 164 167 179 185 172 159
248 241 233 223 212 209 208 203 200 191 184 184 182 181 177 176 173 171 168 167 170 170 172 172 175 184 184 167 163 157 149 146 150 158 165 187 185 181
238 237 233 224 212 197 200 204 207 199 192 190 187 183 177 175 172 170 169 170 170 168 167 168 175 184 184 168 160 155 154 156 157 154 147 133 115 108